Albany, NY

11:38 AM EDT on October 19, 2019 (GMT -0400)
Albany International

Weather History for KALB - August, 2019

Change the Weather History Date:

Saturday, August 31, 2019

  Actual Average Record
Temperature  
Mean Temperature 65 °F 68 °F  
Max Temperature 76 °F 78 °F 93 °F (1953)
Min Temperature 54 °F 57 °F 37 °F (1965)
Degree Days  
Heating Degree Days 0 1  
Month to date heating degree days 2 14  
Since 1 June heating degree days 29 75  
Since 1 July heating degree days 2 23  
Cooling Degree Days 0 4  
Month to date cooling degree days 217 177  
Year to date cooling degree days 723 543  
Since 1 June cooling degree days 701 513  
Growing Degree Days 14 (Base 50)    
Moisture  
Dew Point 50 °F    
Average Humidity 61    
Maximum Humidity 83    
Minimum Humidity 38    
Precipitation  
Precipitation 0.00 in 0.09 in 4.08 in (1950)
Month to date precipitation 4.12 3.46  
Year to date precipitation 28.98 26.15  
Sea Level Pressure  
Sea Level Pressure 30.24 in    
Wind  
Wind Speed 6 mph (WNW)    
Max Wind Speed 18 mph    
Max Gust Speed 25 mph    
Visibility 10 miles    
Events      
T = Trace of Precipitation, MM = Missing Value Source: NWS Daily Summary

Daily Weather History Graph

Daily Weather History Graph

Search for Another Location

Airport or City:

Astronomy

Aug. 31, 2019 Rise Set
Actual Time 6:18 AM EDT 7:31 PM EDT
Civil Twilight 5:49 AM EDT 8:00 PM EDT
Nautical Twilight 5:14 AM EDT 8:35 PM EDT
Astronomical Twilight 4:37 AM EDT 9:12 PM EDT
Moon 7:31 AM EDT (8/31) 8:41 PM EDT (8/31)
Length of Visible Light 14h 11m
Length of Day
13h 13m
New Moon, 2% of the Moon is Illuminated
Aug 31
New Moon
Sep 5
First Quarter
Sep 14
Full
Sep 21
Last Quarter
Sep 28
New

Hourly Weather History & Observations

Time (EDT) Temp. Dew Point Humidity Pressure Visibility Wind Dir Wind Speed Gust Speed Precip Events Conditions
12:51 AM 63.0 °F 53.1 °F 70% 30.12 in 10.0 mi Calm Calm - N/A   Mostly Cloudy
1:51 AM 62.1 °F 52.0 °F 70% 30.14 in 10.0 mi Calm Calm - N/A   Overcast
2:51 AM 59.0 °F 51.1 °F 75% 30.14 in 10.0 mi Calm Calm - N/A   Overcast
3:51 AM 60.1 °F 48.9 °F 67% 30.15 in 10.0 mi Calm Calm - N/A   Scattered Clouds
4:51 AM 57.0 °F 48.9 °F 74% 30.17 in 10.0 mi Calm Calm - N/A   Mostly Cloudy
5:51 AM 57.9 °F 50.0 °F 75% 30.20 in 10.0 mi WNW 6.9 mph - N/A   Mostly Cloudy
6:51 AM 54.0 °F 48.9 °F 83% 30.22 in 10.0 mi Calm Calm - N/A   Scattered Clouds
7:51 AM 62.1 °F 51.1 °F 67% 30.24 in 10.0 mi Calm Calm - N/A   Scattered Clouds
8:51 AM 66.0 °F 51.1 °F 59% 30.26 in 10.0 mi Calm Calm - N/A   Scattered Clouds
9:51 AM 68.0 °F 52.0 °F 56% 30.26 in 10.0 mi South 5.8 mph - N/A   Scattered Clouds
10:51 AM 72.0 °F 51.1 °F 48% 30.26 in 10.0 mi NNW 10.4 mph - N/A   Scattered Clouds
11:51 AM 73.0 °F 51.1 °F 46% 30.25 in 10.0 mi WNW 11.5 mph - N/A   Mostly Cloudy
12:51 PM 73.9 °F 51.1 °F 45% 30.25 in 10.0 mi West 11.5 mph 19.6 mph N/A   Mostly Cloudy
1:51 PM 75.9 °F 48.9 °F 38% 30.25 in 10.0 mi NW 13.8 mph - N/A   Mostly Cloudy
2:51 PM 75.9 °F 50.0 °F 40% 30.24 in 10.0 mi WNW 10.4 mph - N/A   Mostly Cloudy
3:51 PM 75.0 °F 48.9 °F 40% 30.24 in 10.0 mi WNW 12.7 mph - N/A   Mostly Cloudy
4:51 PM 73.9 °F 50.0 °F 43% 30.25 in 10.0 mi West 11.5 mph - N/A   Mostly Cloudy
5:51 PM 72.0 °F 51.1 °F 48% 30.26 in 10.0 mi West 8.1 mph - N/A   Mostly Cloudy
6:51 PM 71.1 °F 51.1 °F 49% 30.27 in 10.0 mi West 8.1 mph - N/A   Mostly Cloudy
7:51 PM 66.9 °F 50.0 °F 54% 30.27 in 10.0 mi West 8.1 mph - N/A   Mostly Cloudy
8:51 PM 66.0 °F 48.9 °F 54% 30.29 in 10.0 mi WNW 8.1 mph - N/A   Mostly Cloudy
9:51 PM 63.0 °F 48.9 °F 60% 30.31 in 10.0 mi NNW 6.9 mph - N/A   Mostly Cloudy
10:51 PM 62.1 °F 50.0 °F 65% 30.32 in 10.0 mi North 5.8 mph - N/A   Mostly Cloudy
11:51 PM 60.1 °F 50.0 °F 69% 30.32 in 10.0 mi NNW 6.9 mph - N/A   Scattered Clouds